Location: Croissy-Beaubourg
(48.8283°N, 2.6696°E)
Time: 00:28:52
(UTC+00:00)

USA 215 - Pass Details

Date: 29 May 2022
Orbit: 1099 x 1108 km, 123.0° (Epoch: 10 June)

Event Time Altitude Azimuth Distance (km) Brightness Sun altitude
Rises 01:35:51 0° 63° (ENE) 3,923 7.1 -15.5°
Reaches altitude 10° 01:38:24 10° 58° (ENE) 2,965 6.4 -15.3°
Maximum altitude 01:44:39 50° 346° (NNW) 1,383 4.1 -14.8°
Drops below altitude 10° 01:50:54 10° 274° (W) 2,967 5.3 -14.3°
Sets 01:53:27 0° 269° (W) 3,925 5.9 -14.1°
